International Skating Union - Official Site

ISU World Allround Championships 2017
March 4-5, 2017

Draw | Lap Times | Index | Classification

Referee: Knut Arthur  OLSEN  (NOR)
Starter: Jyrki  JÄÄSKELÄINEN  (FIN)
StartTime: EndTime: Air Temp: Ice Temp: Humidity:
15:55 17:49 16.7℃ -10.5℃ 25.5%
Result 5000m Men
Rankings as of Mar 5 2017 5:24PM
Rank: No.: Name: Nation: Time: Behind: Points:
1 17 Sven  Kramer NED NED 6:12.33200m - 19.01 - (19.0)
600m - 47.97 - (28.9)
1000m - 1:17.82 - (29.8)
1400m - 1:47.78 - (29.9)
1800m - 2:17.36 - (29.5)
2200m - 2:46.80 - (29.4)
2600m - 3:16.47 - (29.6)
3000m - 3:45.73 - (29.2)
3400m - 4:15.07 - (29.3)
3800m - 4:44.27 - (29.2)
4200m - 5:13.22 - (28.9)
4600m - 5:42.46 - (29.2)
5000m - 6:12.33 - (29.8)
37.233
2 18 Patrick  Roest NED NED 6:15.10200m - 18.83 - (18.8)
600m - 47.96 - (29.1)
1000m - 1:17.83 - (29.8)
1400m - 1:47.70 - (29.8)
1800m - 2:17.40 - (29.7)
2200m - 2:47.04 - (29.6)
2600m - 3:16.47 - (29.4)
3000m - 3:46.13 - (29.6)
3400m - 4:16.01 - (29.8)
3800m - 4:45.80 - (29.7)
4200m - 5:15.61 - (29.8)
4600m - 5:45.21 - (29.6)
5000m - 6:15.10 - (29.8)
2.77 37.510
3 15 Jan  Blokhuijsen NED NED 6:15.99200m - 18.37 - (18.3)
600m - 47.27 - (28.9)
1000m - 1:16.66 - (29.3)
1400m - 1:46.38 - (29.7)
1800m - 2:16.30 - (29.9)
2200m - 2:46.26 - (29.9)
2600m - 3:16.11 - (29.8)
3000m - 3:46.04 - (29.9)
3400m - 4:15.79 - (29.7)
3800m - 4:45.89 - (30.1)
4200m - 5:15.90 - (30.0)
4600m - 5:45.95 - (30.0)
5000m - 6:15.99 - (30.0)
3.66 37.599
4 5 Patrick  Beckert GER GER 6:19.88200m - 19.21 - (19.2)
600m - 48.38 - (29.1)
1000m - 1:18.40 - (30.0)
1400m - 1:48.46 - (30.0)
1800m - 2:18.68 - (30.2)
2200m - 2:48.59 - (29.9)
2600m - 3:18.41 - (29.8)
3000m - 3:48.51 - (30.1)
3400m - 4:18.53 - (30.0)
3800m - 4:48.62 - (30.0)
4200m - 5:18.82 - (30.2)
4600m - 5:49.07 - (30.2)
5000m - 6:19.88 - (30.8)
7.55 37.988
5 8 Andrea  Giovannini ITA ITA 6:21.60200m - 19.26 - (19.2)
600m - 48.76 - (29.5)
1000m - 1:18.77 - (30.0)
1400m - 1:48.93 - (30.1)
1800m - 2:18.68 - (29.7)
2200m - 2:48.52 - (29.8)
2600m - 3:18.58 - (30.0)
3000m - 3:48.61 - (30.0)
3400m - 4:18.87 - (30.2)
3800m - 4:49.07 - (30.2)
4200m - 5:19.52 - (30.4)
4600m - 5:50.19 - (30.6)
5000m - 6:21.60 - (31.4)
9.27 38.160
6 1 Bart  Swings BEL BEL 6:22.44200m - 18.57 - (18.5)
600m - 47.88 - (29.3)
1000m - 1:17.93 - (30.0)
1400m - 1:48.15 - (30.2)
1800m - 2:18.21 - (30.0)
2200m - 2:48.48 - (30.2)
2600m - 3:18.63 - (30.1)
3000m - 3:49.09 - (30.4)
3400m - 4:19.30 - (30.2)
3800m - 4:49.86 - (30.5)
4200m - 5:20.39 - (30.5)
4600m - 5:51.26 - (30.8)
5000m - 6:22.44 - (31.1)
10.11 38.244
7 22 Sverre Lunde  Pedersen NOR NOR 6:23.61200m - 18.71 - (18.7)
600m - 48.01 - (29.3)
1000m - 1:17.92 - (29.9)
1400m - 1:48.01 - (30.0)
1800m - 2:18.24 - (30.2)
2200m - 2:48.23 - (29.9)
2600m - 3:18.54 - (30.3)
3000m - 3:48.72 - (30.1)
3400m - 4:19.12 - (30.4)
3800m - 4:49.58 - (30.4)
4200m - 5:20.33 - (30.7)
4600m - 5:51.37 - (31.0)
5000m - 6:23.61 - (32.2)
11.28 38.361
8 10 Nicola  Tumolero ITA ITA 6:24.87200m - 19.40 - (19.4)
600m - 49.55 - (30.1)
1000m - 1:20.54 - (30.9)
1400m - 1:51.30 - (30.7)
1800m - 2:21.74 - (30.4)
2200m - 2:52.06 - (30.3)
2600m - 3:22.72 - (30.6)
3000m - 3:53.55 - (30.8)
3400m - 4:24.29 - (30.7)
3800m - 4:54.93 - (30.6)
4200m - 5:25.33 - (30.4)
4600m - 5:55.42 - (30.0)
5000m - 6:24.87 - (29.4)
12.54 38.487
9 12 Ryosuke  Tsuchiya JPN JPN 6:25.24200m - 19.15 - (19.1)
600m - 48.96 - (29.8)
1000m - 1:19.41 - (30.4)
1400m - 1:49.78 - (30.3)
1800m - 2:20.32 - (30.5)
2200m - 2:50.64 - (30.3)
2600m - 3:21.14 - (30.5)
3000m - 3:51.55 - (30.4)
3400m - 4:22.05 - (30.5)
3800m - 4:52.52 - (30.4)
4200m - 5:23.21 - (30.6)
4600m - 5:54.07 - (30.8)
5000m - 6:25.24 - (31.1)
12.91 38.524
10 13 Shane  Williamson JPN JPN 6:28.98200m - 19.05 - (19.0)
600m - 49.57 - (30.5)
1000m - 1:19.84 - (30.2)
1400m - 1:50.24 - (30.4)
1800m - 2:20.72 - (30.4)
2200m - 2:51.46 - (30.7)
2600m - 3:22.32 - (30.8)
3000m - 3:53.34 - (31.0)
3400m - 4:24.48 - (31.1)
3800m - 4:55.66 - (31.1)
4200m - 5:26.58 - (30.9)
4600m - 5:57.58 - (31.0)
5000m - 6:28.98 - (31.4)
16.65 38.898
11 19 Sindre  Henriksen NOR NOR 6:29.27200m - 18.79 - (18.7)
600m - 48.71 - (29.9)
1000m - 1:19.26 - (30.5)
1400m - 1:49.80 - (30.5)
1800m - 2:20.38 - (30.5)
2200m - 2:51.13 - (30.7)
2600m - 3:21.82 - (30.6)
3000m - 3:52.55 - (30.7)
3400m - 4:23.37 - (30.8)
3800m - 4:54.27 - (30.9)
4200m - 5:25.39 - (31.1)
4600m - 5:56.92 - (31.5)
5000m - 6:29.27 - (32.3)
16.94 38.927
12 14 Haralds  Silovs LAT LAT 6:30.93200m - 18.86 - (18.8)
600m - 48.33 - (29.4)
1000m - 1:18.93 - (30.6)
1400m - 1:49.56 - (30.6)
1800m - 2:20.33 - (30.7)
2200m - 2:51.07 - (30.7)
2600m - 3:21.68 - (30.6)
3000m - 3:52.49 - (30.8)
3400m - 4:23.65 - (31.1)
3800m - 4:54.87 - (31.2)
4200m - 5:26.61 - (31.7)
4600m - 5:58.75 - (32.1)
5000m - 6:30.93 - (32.1)
18.60 39.093
13 2 Benjamin  Donnelly CAN CAN 6:31.71200m - 19.29 - (19.2)
600m - 50.42 - (31.1)
1000m - 1:22.34 - (31.9)
1400m - 1:53.46 - (31.1)
1800m - 2:24.80 - (31.3)
2200m - 2:55.76 - (30.9)
2600m - 3:26.96 - (31.2)
3000m - 3:57.85 - (30.8)
3400m - 4:28.91 - (31.0)
3800m - 4:59.79 - (30.8)
4200m - 5:30.74 - (30.9)
4600m - 6:01.49 - (30.7)
5000m - 6:31.71 - (30.2)
19.38 39.171
14 29 Denis  Yuskov RUS RUS 6:31.83200m - 19.15 - (19.1)
600m - 49.63 - (30.4)
1000m - 1:20.33 - (30.7)
1400m - 1:51.06 - (30.7)
1800m - 2:21.37 - (30.3)
2200m - 2:51.93 - (30.5)
2600m - 3:22.61 - (30.6)
3000m - 3:53.70 - (31.0)
3400m - 4:25.30 - (31.6)
3800m - 4:57.03 - (31.7)
4200m - 5:28.83 - (31.8)
4600m - 6:00.68 - (31.8)
5000m - 6:31.83 - (31.1)
19.50 39.183
15 11 Shota  Nakamura JPN JPN 6:32.34200m - 18.68 - (18.6)
600m - 48.87 - (30.1)
1000m - 1:20.04 - (31.1)
1400m - 1:51.28 - (31.2)
1800m - 2:22.42 - (31.1)
2200m - 2:53.26 - (30.8)
2600m - 3:24.38 - (31.1)
3000m - 3:55.44 - (31.0)
3400m - 4:26.68 - (31.2)
3800m - 4:57.98 - (31.3)
4200m - 5:29.35 - (31.3)
4600m - 6:00.71 - (31.3)
5000m - 6:32.34 - (31.6)
20.01 39.234
16 24 Jan  Szymanski POL POL 6:32.81200m - 18.87 - (18.8)
600m - 48.94 - (30.0)
1000m - 1:19.71 - (30.7)
1400m - 1:50.53 - (30.8)
1800m - 2:21.14 - (30.6)
2200m - 2:51.56 - (30.4)
2600m - 3:22.37 - (30.8)
3000m - 3:53.34 - (30.9)
3400m - 4:24.10 - (30.7)
3800m - 4:55.09 - (30.9)
4200m - 5:27.21 - (32.1)
4600m - 5:59.96 - (32.7)
5000m - 6:32.81 - (32.8)
20.48 39.281
17 3 Sebastian  Druszkiewicz CZE CZE 6:34.04200m - 19.66 - (19.6)
600m - 50.90 - (31.2)
1000m - 1:21.65 - (30.7)
1400m - 1:52.32 - (30.6)
1800m - 2:23.06 - (30.7)
2200m - 2:53.78 - (30.7)
2600m - 3:25.06 - (31.2)
3000m - 3:56.14 - (31.0)
3400m - 4:27.64 - (31.5)
3800m - 4:59.06 - (31.4)
4200m - 5:30.54 - (31.4)
4600m - 6:02.28 - (31.7)
5000m - 6:34.04 - (31.7)
21.71 39.404
18 27 Danila  Semerikov RUS RUS 6:34.31200m - 19.41 - (19.4)
600m - 50.53 - (31.1)
1000m - 1:22.03 - (31.5)
1400m - 1:53.07 - (31.0)
1800m - 2:24.19 - (31.1)
2200m - 2:55.64 - (31.4)
2600m - 3:27.03 - (31.3)
3000m - 3:58.53 - (31.5)
3400m - 4:29.54 - (31.0)
3800m - 5:00.46 - (30.9)
4200m - 5:31.56 - (31.1)
4600m - 6:02.77 - (31.2)
5000m - 6:34.31 - (31.5)
21.98 39.431
19 23 Konrad  Niedzwiedzki POL POL 6:34.35200m - 18.90 - (18.9)
600m - 48.82 - (29.9)
1000m - 1:19.87 - (31.0)
1400m - 1:51.35 - (31.4)
1800m - 2:22.54 - (31.1)
2200m - 2:53.79 - (31.2)
2600m - 3:24.92 - (31.1)
3000m - 3:56.10 - (31.1)
3400m - 4:27.39 - (31.2)
3800m - 4:58.66 - (31.2)
4200m - 5:29.97 - (31.3)
4600m - 6:01.90 - (31.9)
5000m - 6:34.35 - (32.4)
22.02 39.435
20 20 Simen Spieler  Nilsen NOR NOR 6:34.71200m - 19.20 - (19.2)
600m - 49.42 - (30.2)
1000m - 1:20.32 - (30.9)
1400m - 1:51.47 - (31.1)
1800m - 2:22.68 - (31.2)
2200m - 2:53.97 - (31.2)
2600m - 3:25.21 - (31.2)
3000m - 3:56.33 - (31.1)
3400m - 4:27.38 - (31.0)
3800m - 4:58.68 - (31.3)
4200m - 5:30.70 - (32.0)
4600m - 6:02.48 - (31.7)
5000m - 6:34.71 - (32.2)
22.38 39.471
21 28 Sergey  Trofimov RUS RUS 6:35.04200m - 18.75 - (18.7)
600m - 48.50 - (29.7)
1000m - 1:18.57 - (30.0)
1400m - 1:49.04 - (30.4)
1800m - 2:19.56 - (30.5)
2200m - 2:50.09 - (30.5)
2600m - 3:20.77 - (30.6)
3000m - 3:51.85 - (31.0)
3400m - 4:23.32 - (31.4)
3800m - 4:55.36 - (32.0)
4200m - 5:28.25 - (32.8)
4600m - 6:01.52 - (33.2)
5000m - 6:35.04 - (33.5)
22.71 39.504
22 9 Michele  Malfatti ITA ITA 6:36.29200m - 19.54 - (19.5)
600m - 49.80 - (30.2)
1000m - 1:20.62 - (30.8)
1400m - 1:51.26 - (30.6)
1800m - 2:21.78 - (30.5)
2200m - 2:52.61 - (30.8)
2600m - 3:23.74 - (31.1)
3000m - 3:55.13 - (31.3)
3400m - 4:26.83 - (31.7)
3800m - 4:58.91 - (32.0)
4200m - 5:31.17 - (32.2)
4600m - 6:03.70 - (32.5)
5000m - 6:36.29 - (32.5)
23.96 39.629
23 25 Adrian  Wielgat POL POL 6:42.80200m - 19.38 - (19.3)
600m - 50.40 - (31.0)
1000m - 1:22.29 - (31.8)
1400m - 1:54.11 - (31.8)
1800m - 2:25.25 - (31.1)
2200m - 2:56.62 - (31.3)
2600m - 3:28.01 - (31.3)
3000m - 3:59.62 - (31.6)
3400m - 4:31.33 - (31.7)
3800m - 5:03.41 - (32.0)
4200m - 5:36.09 - (32.6)
4600m - 6:09.23 - (33.1)
5000m - 6:42.80 - (33.5)
30.47 40.280
24 6 Felix  Maly GER GER 6:46.08200m - 19.71 - (19.7)
600m - 50.24 - (30.5)
1000m - 1:21.20 - (30.9)
1400m - 1:52.33 - (31.1)
1800m - 2:22.93 - (30.6)
2200m - 2:54.06 - (31.1)
2600m - 3:25.46 - (31.4)
3000m - 3:57.43 - (31.9)
3400m - 4:30.10 - (32.6)
3800m - 5:03.44 - (33.3)
4200m - 5:37.45 - (34.0)
4600m - 6:12.16 - (34.7)
5000m - 6:46.08 - (33.9)
33.75 40.608